Zurück zum Katalog

COSMOS 970 DEB

AktivLEO
NORAD 64990·DEBRIS·🇷🇺 Russia

Gestartet Dec 21, 1977 von Baikonur Cosmodrome

Loading…

Nächste Überflüge (nächste 24 Stunden)

TLE

AlterndSource: Space-Track

Epoche: Sep 11, 2026, 06:47 UTC

1 64990U 77121DB  26254.28309005  .00000277  00000-0  36170-3 0  9998
2 64990  65.8724 207.4119 0117045 327.0662  32.3145 13.74107682641378

Verfolge COSMOS 970 DEB in Echtzeit mit AllMySat

Download on the App Store